Regional Weather Roundup
Issued by NWS Cleveland, OH

Home | Current Version | Previous Version | Text Only | Print | Product List | Glossary On
Versions: 1 2 3 4 5 6 7 8 9 10 11 12 13 14 15 16 17 18 19 20 21 22 23 24 25 26 27 28 29 30 31 32 33 34 35 36 37 38 39 40 41 42 43 44 45 46 47 48 49 50
000
ASUS41 KCLE 231410
RWRCLE
OHIO REGIONAL WEATHER ROUNDUP
NATIONAL WEATHER SERVICE WILMINGTON, OH
1000 AM EDT WED APR 23 2014

NOTE: "FAIR" INDICATES FEW OR NO CLOUDS BELOW 12,000 FEET WITH NO
SIGNIFICANT WEATHER AND/OR OBSTRUCTIONS TO VISIBILITY.

OHZ001>008-015>018-024>027-034-035-043-044-231500-
   NORTHWEST OHIO

CITY           SKY/WX    TMP DP  RH WIND       PRES   REMARKS
DEFIANCE       SUNNY     43  29  57 N9        30.10S
FINDLAY        PTSUNNY   42  30  62 N8        30.08R
TOLEDO EXPRESS PTSUNNY   41  28  60 N14G22    30.09R
TOLEDO METCALF CLOUDY    41  28  60 N10       30.10R
LIMA           SUNNY     41  31  67 N9        30.08R
$$

OHZ009>014-019>023-028>033-038-089-231500-
   NORTHEAST OHIO

CITY           SKY/WX    TMP DP  RH WIND       PRES   REMARKS
CLE-HOPKINS    CLOUDY    41  31  67 N13G21    30.07R
CLE-LAKEFRONT  CLOUDY    39  32  76 NW14      30.04R
CUY CO. ARPT   CLOUDY    37  32  81 MISG      30.04R
LORAIN-ELYRIA  CLOUDY    42  31  64 N13       30.06R
ASHTABULA      CLOUDY    36  29  75 NW16      30.00R
AKRON-CANTON   CLOUDY    40  34  79 N9        30.01R
WOOSTER        CLOUDY    39  31  72 N13       30.04R
MANSFIELD      CLOUDY    39  32  76 NW12      30.04R
YOUNGSTOWN     LGT RAIN  36  31  82 NW13G21   29.98R
$$

OHZ042-051>053-060>062-070>072-077>081-231500-
  SOUTHWEST OHIO

CITY           SKY/WX    TMP DP  RH WIND       PRES   REMARKS
CINC-COVINGTON SUNNY     45  30  55 N7        30.09R
CINC-LUNKEN    SUNNY     46  31  55 N9        30.11S
HAMILTON       SUNNY     46  31  55 N9        30.12R
DAYTON         SUNNY     43  30  60 N8        30.10R
WRIGHT-PAT AFB SUNNY     43  31  62 N10       30.09R
DAYTON GENERAL SUNNY     44  30  57 N9        30.08R
WILMINGTON     SUNNY     44  30  57 N8        30.07R
$$

OHZ036-037-039>041-045>050-054>059-063>069-073>076-082>088-231500-
  CENTRAL AND SOUTHEAST OHIO

CITY           SKY/WX    TMP DP  RH WIND       PRES   REMARKS
COLUMBUS       MOSUNNY   45  31  58 N6        30.06R
OSU AIRPORT    MOSUNNY   43  31  62 NW12      30.06R
BOLTON FIELD   SUNNY     43  32  65 N7        30.06S
RICKENBACK AFB SUNNY     46  29  51 N9        30.06S
NEWARK         CLOUDY    43  31  62 NW9       30.05R
MARION         PTSUNNY   41  30  65 N10       30.07R
LANCASTER      MOSUNNY   45  31  58 VRB7      30.06R
ZANESVILLE     CLOUDY    45  30  55 N10       30.03R
NEW PHILLY     CLOUDY    41  30  65 NW12      30.03R
$$



USA.gov is the U.S. government's official web portal to all federal, state and local government web resources and services.